User: anonymous   Login
Location: Marne
(34.0056°N, 117.9064°W)
Time: 12:04:23
(UTC+00:00)
Language:

Cosmos 2154 Rocket - Orbit

View from above orbital plane
View from above orbital plane
View from above satellite
View from above satellite

Ground track
Ground track

The orbit data is extracted from the following two-line orbital elements,

1 21667U 91059B   20098.76359741 -.00000012  00000-0 -28198-4 0  9994
2 21667  82.9054 325.3954 0019555 275.7369 154.2944 13.75095887436642
Epoch (UTC): 07 April 2020 18:19:34
Eccentricity: 0.0019555
inclination: 82.9054°
perigee height: 967 km
apogee height: 996 km
right ascension of ascending node: 325.3954°
argument of perigee: 275.7369°
revolutions per day: 13.75095887
mean anomaly at epoch: 154.2944°
orbit number at epoch: 43664

The dashed part of the orbit path shows where the satellite is in the earth's shadow,  

DLR